Temperature
26 23 22 22 23 24 24 24 23 23 23 22 21 20 20 19 19 18 19 18 18 18 18 18 18 18 18 18 18 18 18 18 18 17 17 17 17 17 16 16 16 16 16 16
23 23 25 26 26 26 25 23 23 23 23 22 20 20 19 19 19 19 19 18 18 18 18 18 18 18 18 18 18 18 18 18 17 17 17 17 17 16 16 16 16 16 16 15
23 24 27 27 27 26 24 23 23 23 22 21 21 19 19 19 19 19 19 19 19 18 18 18 18 18 18 18 18 18 18 18 17 17 17 16 16 16 16 16 15 15 15 15
24 26 27 27 27 26 24 25 24 23 21 19 20 18 19 18 18 19 19 19 19 19 19 19 18 18 18 18 18 18 18 17 17 17 17 16 16 16 16 15 15 15 15 14
24 26 26 26 27 26 24 24 23 21 19 18 19 18 18 18 18 18 19 19 19 19 19 19 19 19 18 18 18 18 18 17 17 17 16 16 16 16 15 15 15 14 14 14
25 26 26 27 27 26 24 22 20 18 17 18 18 19 18 18 19 19 19 19 20 20 20 19 19 19 19 18 18 18 18 17 17 16 16 16 15 15 15 15 14 14 14 14
24 25 26 26 26 25 23 20 19 19 18 18 18 19 18 19 20 20 20 20 20 20 20 19 19 19 19 18 18 18 18 17 17 16 16 16 15 15 15 14 14 14 14 13
23 23 25 26 25 24 23 21 20 20 19 18 18 18 19 21 21 21 21 21 20 20 20 20 20 19 19 19 18 18 18 17 17 16 16 15 15 15 14 14 14 13 13 13
22 23 26 27 26 25 24 22 20 18 18 18 18 18 20 21 20 20 21 21 20 21 21 20 20 20 19 19 19 18 18 17 17 16 16 15 15 14 14 14 13 13 13 13
22 23 25 26 26 24 23 22 19 18 18 18 19 19 19 20 20 20 20 20 21 21 21 21 21 20 20 19 19 18 18 18 17 16 16 15 15 14 14 14 13 13 13 13
23 22 23 24 24 24 23 22 19 17 18 18 18 19 20 20 20 20 20 21 21 21 21 21 21 20 20 19 19 18 18 17 17 16 16 15 15 14 14 14 13 13 13 12
22 20 21 22 22 23 23 22 20 19 18 17 18 19 22 21 20 21 21 22 22 22 22 22 21 20 20 19 19 19 18 18 17 16 16 15 15 14 14 14 13 13 13 12
22 20 20 21 21 22 22 22 20 18 17 17 18 20 22 21 21 22 22 22 22 22 22 21 21 20 20 20 19 19 18 18 17 16 16 15 15 14 14 14 13 13 13 12
22 20 20 21 21 21 22 23 22 19 18 18 19 21 22 21 21 21 22 22 22 22 22 21 21 21 20 20 19 19 18 18 17 16 16 15 15 14 14 14 13 13 13 12
21 20 21 21 22 22 22 23 23 22 20 20 20 21 21 21 21 22 23 23 22 22 22 22 21 21 20 20 19 19 18 18 17 16 16 15 15 14 14 14 13 13 13 12
18 20 21 22 23 23 23 24 24 23 23 22 22 22 21 22 23 22 23 22 22 22 22 22 22 21 21 20 19 19 18 18 17 16 16 15 15 14 14 14 13 13 13 12
17 18 19 20 21 22 22 22 23 23 23 22 21 21 21 21 21 22 23 23 23 23 23 22 22 21 21 20 20 19 18 18 17 17 16 16 15 15 14 14 13 13 13 12
17 17 17 19 20 21 21 22 23 23 22 22 21 21 21 21 23 24 25 24 24 23 23 22 22 22 21 20 20 19 18 18 17 17 16 16 15 15 14 14 14 13 13 13
17 17 17 18 19 20 22 22 22 22 21 21 21 21 22 23 22 22 24 25 25 24 24 23 22 22 21 20 20 19 18 18 17 17 17 16 15 15 15 14 14 13 13 13
17 16 17 17 19 20 21 21 21 21 20 20 20 20 21 21 19 20 23 24 24 24 24 23 22 22 21 20 20 19 19 18 18 17 17 16 15 15 15 14 14 14 13 13
17 16 17 17 18 19 19 20 21 20 19 19 19 20 21 20 21 23 24 24 24 24 23 23 22 21 21 20 20 19 19 18 18 17 16 16 15 15 15 14 14 14 13 13
16 16 16 16 17 18 18 19 18 18 18 18 20 21 21 22 22 23 23 23 23 23 23 22 22 21 21 20 19 19 19 18 17 17 16 16 15 15 14 14 14 13 13 13
16 16 15 16 16 17 17 18 19 19 19 19 20 21 21 21 21 22 22 22 22 22 22 22 21 21 20 20 19 19 19 18 17 17 16 16 15 15 14 14 14 13 13 13
16 15 15 15 16 16 17 19 19 20 20 20 21 21 21 21 21 21 21 21 21 21 21 21 20 20 20 19 19 18 18 17 17 16 16 15 15 14 14 14 13 13 13 13
16 16 15 15 16 16 17 18 19 20 20 20 20 20 20 20 20 20 20 20 20 20 20 20 19 19 19 18 18 17 17 16 16 16 15 15 14 14 14 13 13 13 13 13
16 16 16 16 16 16 17 19 19 19 19 19 19 19 19 19 19 19 19 19 19 19 19 18 18 18 18 17 17 17 16 16 16 15 15 14 14 14 13 13 13 13 13 12
Wind_Speed
3 0 7 11 10 10 6 3 3 4 2 4 4 3 3 3 6 7 8 9 9 8 7 8 8 8 8 8 8 7 6 5 5 3 3 3 2 2 2 2 4 6 6 6
4 8 16 12 10 7 4 3 3 2 2 4 4 3 2 3 5 7 8 9 8 8 8 9 8 7 8 8 7 6 6 6 5 3 2 2 3 2 2 1 2 4 5 5
9 11 10 7 8 4 2 5 4 2 3 4 4 3 2 0 1 3 6 7 9 12 12 10 10 8 7 8 8 7 6 6 5 4 3 4 4 4 3 2 1 0 2 3
7 10 8 6 4 3 3 4 5 4 4 2 2 1 3 3 2 4 6 8 10 10 10 10 10 9 8 7 7 7 7 6 5 5 5 5 4 3 1 0 1 2 2 1
7 6 4 5 6 3 4 4 5 4 5 3 4 3 4 2 5 7 9 11 12 12 12 12 12 11 10 9 8 7 7 6 5 6 7 7 5 3 2 2 3 3 4 4
9 7 5 5 4 4 9 5 5 6 5 4 2 1 5 5 8 8 9 12 13 12 12 11 10 10 9 8 8 8 8 6 6 7 7 7 7 5 4 3 3 3 3 4
8 8 5 3 1 2 4 5 4 6 6 3 2 1 7 8 7 9 11 13 14 13 13 12 12 11 10 10 9 9 9 7 7 7 7 7 7 6 5 4 3 3 2 2
4 8 5 3 5 5 4 8 7 4 3 3 2 4 7 6 8 9 10 12 14 13 13 13 14 13 12 12 10 10 9 8 7 7 6 6 6 5 4 4 3 3 2 1
6 7 4 3 3 5 2 2 7 7 3 1 4 5 7 3 5 8 9 11 14 14 14 13 13 12 12 12 11 11 11 9 8 7 6 6 6 5 5 4 3 3 2 2
8 5 5 3 3 3 5 6 6 6 6 2 3 4 5 6 7 9 11 12 13 13 13 13 13 13 12 11 10 10 11 10 8 8 7 6 6 6 6 4 4 3 2 1
5 5 3 3 1 2 2 3 5 5 6 6 3 7 8 12 11 11 13 14 14 15 15 13 12 12 11 11 11 10 10 9 8 8 6 6 6 5 5 4 4 4 3 2
2 5 1 3 4 1 3 5 6 5 4 5 5 7 7 13 12 12 13 13 14 15 14 13 13 12 12 12 11 11 10 9 8 8 7 7 6 6 5 4 4 4 4 3
2 5 3 5 6 3 0 2 5 6 5 5 5 7 4 8 10 11 13 13 13 13 12 12 12 13 13 12 12 11 10 9 8 8 7 7 6 6 5 5 5 4 4 4
3 4 6 8 8 5 4 4 4 6 4 5 8 8 6 9 10 11 13 14 14 14 15 14 13 12 12 12 12 11 10 9 9 8 8 7 7 7 7 6 5 5 5 5
4 3 2 5 6 5 6 6 5 6 9 9 10 10 12 13 13 13 13 13 14 14 14 16 15 13 12 12 11 10 10 9 9 9 8 8 7 7 6 6 6 5 5 5
3 3 1 3 4 4 4 7 6 6 6 7 7 8 9 8 8 9 11 14 16 16 16 16 15 14 14 14 12 11 10 9 9 9 8 8 7 7 7 7 6 5 5 5
3 4 3 3 5 3 5 6 5 4 3 5 7 9 5 6 10 12 13 15 17 16 16 17 16 16 15 14 13 13 11 9 9 9 8 7 7 7 7 7 6 6 5 5
5 4 3 1 2 4 8 5 3 2 1 1 4 6 9 9 10 9 11 15 15 15 15 15 14 13 12 11 11 11 10 10 10 9 8 7 8 8 7 6 6 6 5 5
5 6 3 3 2 6 6 4 1 3 4 5 2 4 5 5 5 1 5 11 14 15 13 13 13 12 11 12 11 11 10 9 9 9 9 8 8 8 7 7 7 6 5 5
4 4 4 3 3 5 5 6 5 4 2 6 4 3 5 7 4 4 4 7 10 11 11 11 11 10 11 11 11 11 10 9 9 9 9 8 8 8 8 8 7 6 5 7
2 2 3 4 3 5 5 7 4 4 3 4 4 4 4 3 6 6 5 6 8 9 10 11 12 11 11 11 11 11 10 10 10 8 7 7 7 8 8 7 5 6 6 6
4 3 3 3 3 6 5 3 2 4 3 1 4 4 3 1 1 4 7 7 8 8 8 10 10 9 8 10 11 10 9 9 7 7 7 7 7 6 6 6 6 6 6 6
3 6 5 5 6 4 3 3 3 4 3 1 2 3 3 4 3 4 5 7 7 7 7 7 9 8 6 8 9 10 8 6 6 6 6 6 6 5 5 6 6 5 5 6
3 3 3 1 3 3 2 1 2 4 3 2 4 4 4 5 4 5 5 6 6 5 5 5 7 7 5 5 6 6 5 5 5 5 5 4 4 5 5 5 5 5 6 6
6 4 3 2 3 1 2 2 4 3 4 6 6 5 5 6 4 4 5 6 6 6 5 5 6 6 5 4 4 4 4 5 5 4 4 4 4 4 5 6 6 7 8 8
4 6 7 7 8 6 4 3 4 4 4 5 7 6 4 5 5 5 6 5 5 5 5 5 4 4 3 4 3 3 3 4 4 4 4 4 4 4 4 5 7 9 12 14
Wind_Direction
283 134 248 244 228 229 246 240 254 256 238 99 108 134 168 163 142 145 145 138 140 140 143 145 142 127 123 118 121 126 120 117 111 102 105 103 106 114 112 131 137 130 123 115
322 264 250 250 261 259 233 211 253 275 139 105 101 113 154 169 168 164 157 154 150 143 149 154 151 144 140 137 139 138 133 130 126 128 132 132 123 116 121 100 113 138 138 136
226 250 262 261 267 242 219 192 202 185 87 66 97 50 42 12 119 159 166 166 160 161 162 164 160 159 153 153 157 147 143 135 131 121 97 80 67 57 48 42 27 343 159 149
246 258 271 285 272 206 229 202 157 131 106 18 62 121 275 215 211 193 181 177 174 170 168 169 167 163 164 164 155 145 144 135 130 118 107 106 107 104 111 128 23 9 30 80
255 268 273 272 254 182 162 116 105 103 107 70 30 98 282 204 206 208 189 186 184 178 178 179 175 170 167 164 158 156 145 139 132 121 118 111 108 117 99 66 50 27 21 34
257 267 248 243 266 164 140 95 59 50 67 46 325 144 262 222 206 196 189 185 185 180 181 179 175 165 167 167 162 158 149 148 141 128 123 122 122 114 93 72 58 41 36 39
288 285 269 252 322 103 119 97 36 7 15 288 276 239 249 232 206 187 185 185 182 179 178 177 175 173 173 174 172 163 153 153 149 137 134 134 132 124 123 122 100 83 60 43
249 284 267 218 187 192 192 136 151 184 212 269 289 249 257 237 206 191 183 180 177 179 180 181 181 178 177 178 172 163 161 160 158 152 150 145 138 133 137 138 133 125 136 163
201 253 274 232 194 157 135 130 154 135 129 114 278 287 303 229 189 184 180 177 182 184 183 183 181 178 178 178 176 171 165 162 163 159 152 152 152 150 154 154 144 151 176 189
181 228 279 257 65 32 143 143 96 117 143 192 274 262 238 218 196 186 184 184 186 182 182 183 180 178 179 176 171 164 161 162 164 161 160 160 161 163 164 160 163 173 186 188
173 176 302 18 108 195 86 100 113 120 144 151 210 259 222 203 196 188 190 188 184 181 181 182 179 176 170 165 162 163 163 161 164 166 164 158 165 164 161 165 179 184 194 207
168 133 200 270 282 257 172 166 142 145 183 163 173 258 245 194 195 188 191 189 187 182 179 175 170 165 163 164 165 167 169 169 173 172 167 169 170 165 167 181 194 199 211 225
129 120 104 336 334 346 40 183 149 133 127 157 169 252 255 184 194 193 188 185 183 177 173 166 165 168 169 168 169 172 173 174 173 167 167 170 174 177 188 200 210 211 217 233
125 130 164 193 217 214 234 228 170 133 150 196 209 221 222 200 197 195 188 184 180 175 172 168 170 174 173 172 172 173 175 173 168 165 166 176 187 191 198 205 211 217 221 230
87 117 192 224 221 192 216 239 223 194 187 191 217 208 212 205 199 197 188 179 174 172 174 175 175 176 174 172 173 172 173 172 166 164 173 189 196 197 200 206 215 223 226 231
81 117 54 309 272 245 261 268 260 240 212 209 204 221 224 197 184 180 178 174 177 180 182 180 177 175 176 177 177 174 175 176 168 171 184 191 194 198 205 212 215 217 227 239
118 117 99 284 308 355 291 267 254 248 221 182 193 219 192 166 178 182 179 178 181 183 181 180 180 180 181 180 177 177 178 174 172 179 189 193 195 202 211 213 209 217 227 233
139 120 137 191 19 245 244 249 229 157 13 109 177 184 167 179 185 180 174 176 181 180 179 181 180 181 181 177 175 173 169 170 177 186 195 198 198 208 213 209 215 225 226 231
144 135 142 145 210 266 284 308 319 104 17 8 100 151 149 116 86 69 190 171 174 178 177 179 179 176 173 174 173 165 170 175 182 194 203 204 201 205 206 210 221 225 226 237
81 107 127 136 169 238 262 307 319 89 37 350 32 97 120 97 123 231 214 167 167 170 168 168 167 163 169 176 166 165 175 180 194 202 205 203 198 200 207 216 223 225 225 237
59 63 143 168 194 258 281 311 2 123 224 314 18 51 95 150 201 209 171 154 156 161 165 163 161 168 178 172 163 173 180 196 203 199 196 198 201 205 212 219 224 229 233 242
173 168 189 160 178 242 296 10 114 193 221 342 33 41 56 151 144 139 144 141 139 142 148 153 159 170 171 163 163 175 195 204 193 187 194 203 208 213 214 218 233 233 232 245
190 189 178 188 212 246 247 195 190 165 175 151 67 35 72 86 98 111 126 129 133 138 146 152 155 159 163 168 170 184 203 187 177 185 200 209 212 219 221 220 233 241 239 242
233 182 151 194 252 249 246 189 154 161 162 151 111 93 101 99 102 103 106 107 107 109 121 132 139 148 165 173 173 186 176 163 169 191 211 217 222 238 243 240 235 238 244 246
208 171 157 202 236 253 275 201 167 141 124 99 90 88 92 96 101 120 123 121 123 113 106 113 130 147 163 163 169 175 169 161 173 195 212 224 233 244 256 256 247 243 241 237
202 182 178 202 200 175 200 195 154 129 120 111 105 85 83 116 123 121 117 117 117 112 106 106 117 133 150 153 167 183 176 168 178 204 226 232 238 247 254 266 280 267 258 261
Height
1500 1505 1509 1504 1501 1501 1501 1505 1508 1503 1498 1502 1507 1509 1508 1509 1511 1512 1512 1514 1516 1518 1521 1522 1524 1526 1528 1529 1532 1534 1535 1536 1537 1538 1538 1539 1539 1540 1540 1541 1541 1541 1541 1540
1505 1506 1494 1491 1492 1494 1498 1505 1506 1501 1498 1503 1509 1511 1509 1509 1510 1511 1513 1514 1516 1519 1522 1524 1526 1527 1528 1529 1532 1534 1535 1536 1537 1538 1538 1538 1539 1539 1540 1540 1540 1540 1540 1540
1505 1495 1487 1488 1490 1494 1498 1502 1503 1503 1502 1504 1509 1517 1514 1511 1511 1513 1514 1515 1516 1517 1520 1522 1525 1527 1528 1530 1532 1533 1535 1536 1537 1537 1537 1538 1538 1539 1539 1539 1539 1539 1539 1539
1496 1487 1486 1487 1488 1490 1501 1492 1494 1499 1509 1520 1515 1530 1519 1513 1513 1513 1514 1515 1516 1518 1519 1521 1523 1525 1527 1529 1531 1533 1534 1535 1536 1537 1537 1537 1537 1538 1538 1538 1538 1538 1538 1537
1493 1485 1484 1487 1484 1484 1493 1491 1495 1501 1511 1521 1521 1528 1524 1514 1515 1512 1512 1512 1514 1516 1518 1520 1521 1524 1526 1529 1530 1532 1533 1534 1535 1536 1536 1536 1536 1536 1537 1537 1537 1536 1536 1535
1485 1480 1480 1479 1477 1479 1486 1495 1502 1509 1518 1532 1526 1528 1526 1515 1509 1507 1508 1509 1512 1514 1516 1519 1521 1523 1526 1528 1529 1531 1533 1534 1534 1535 1535 1535 1535 1535 1535 1535 1535 1535 1534 1534
1490 1481 1476 1475 1480 1484 1487 1505 1525 1530 1538 1537 1523 1524 1521 1502 1499 1500 1503 1506 1509 1512 1514 1517 1520 1522 1524 1526 1528 1530 1532 1532 1533 1534 1534 1534 1533 1533 1533 1533 1533 1533 1532 1532
1501 1498 1477 1473 1477 1485 1487 1498 1524 1537 1541 1536 1524 1525 1509 1494 1494 1496 1499 1503 1506 1510 1512 1515 1517 1520 1522 1525 1527 1529 1530 1531 1532 1532 1532 1532 1532 1532 1532 1531 1531 1531 1531 1530
1497 1494 1473 1469 1470 1475 1485 1495 1499 1520 1529 1537 1530 1518 1502 1492 1492 1494 1497 1501 1504 1506 1509 1513 1515 1518 1520 1523 1525 1527 1528 1529 1530 1530 1530 1530 1530 1530 1530 1530 1530 1529 1529 1528
1483 1491 1477 1470 1470 1473 1478 1487 1505 1519 1533 1539 1530 1522 1513 1498 1494 1493 1495 1498 1500 1503 1507 1510 1513 1515 1518 1520 1523 1525 1526 1527 1528 1528 1528 1528 1528 1528 1528 1528 1528 1527 1527 1526
1476 1489 1485 1478 1480 1482 1483 1488 1499 1512 1517 1533 1537 1522 1490 1490 1488 1490 1491 1493 1496 1499 1503 1506 1509 1513 1515 1518 1520 1522 1524 1525 1526 1526 1526 1527 1527 1527 1527 1527 1526 1525 1525 1524
1472 1486 1495 1486 1477 1474 1476 1482 1493 1510 1517 1518 1524 1514 1476 1479 1481 1484 1487 1490 1493 1496 1499 1503 1507 1510 1513 1515 1518 1519 1521 1522 1523 1524 1524 1525 1525 1525 1525 1524 1524 1523 1523 1522
1470 1485 1500 1499 1492 1481 1480 1479 1484 1495 1507 1516 1520 1506 1473 1475 1478 1481 1483 1487 1490 1493 1497 1500 1504 1507 1510 1512 1515 1517 1518 1519 1520 1521 1522 1522 1522 1522 1522 1522 1522 1521 1520 1519
1466 1480 1491 1499 1492 1482 1481 1477 1477 1489 1505 1507 1502 1491 1477 1475 1476 1477 1480 1483 1486 1489 1493 1496 1500 1504 1506 1509 1511 1513 1515 1516 1518 1518 1519 1520 1520 1520 1520 1520 1519 1518 1518 1517
1466 1479 1478 1476 1471 1472 1473 1472 1471 1478 1484 1491 1486 1481 1472 1469 1470 1471 1475 1479 1483 1486 1490 1493 1496 1499 1503 1506 1508 1510 1512 1513 1514 1515 1516 1517 1517 1517 1517 1517 1516 1516 1515 1514
1468 1477 1477 1476 1469 1469 1470 1466 1465 1466 1468 1471 1472 1472 1461 1462 1465 1469 1472 1475 1479 1482 1485 1489 1492 1496 1499 1502 1504 1506 1508 1510 1511 1512 1513 1514 1514 1514 1514 1514 1514 1513 1512 1511
1471 1476 1483 1485 1474 1472 1479 1468 1464 1464 1462 1464 1470 1465 1459 1462 1463 1465 1468 1471 1474 1478 1482 1485 1488 1492 1495 1498 1501 1503 1505 1507 1508 1509 1510 1511 1511 1511 1511 1511 1510 1510 1509 1508
1470 1476 1484 1486 1484 1491 1474 1458 1456 1458 1458 1456 1455 1454 1454 1457 1458 1461 1464 1467 1471 1475 1478 1482 1485 1489 1492 1495 1498 1500 1502 1504 1505 1506 1507 1507 1508 1508 1508 1508 1507 1506 1505 1504
1463 1472 1482 1488 1490 1482 1466 1458 1457 1459 1462 1456 1454 1453 1453 1456 1460 1463 1463 1465 1468 1472 1475 1479 1482 1486 1489 1492 1495 1497 1499 1500 1501 1502 1503 1504 1504 1504 1504 1504 1503 1503 1501 1500
1465 1467 1478 1485 1489 1489 1470 1458 1454 1457 1467 1459 1456 1455 1455 1458 1468 1465 1463 1465 1468 1471 1473 1477 1481 1484 1486 1489 1491 1493 1495 1496 1497 1498 1499 1500 1501 1501 1500 1500 1499 1499 1497 1496
1473 1476 1480 1484 1486 1477 1464 1458 1456 1472 1472 1461 1458 1458 1457 1459 1461 1460 1461 1464 1466 1469 1472 1474 1478 1480 1483 1485 1488 1490 1491 1492 1494 1495 1496 1496 1497 1497 1496 1496 1495 1494 1493 1492
1474 1478 1481 1483 1486 1481 1461 1458 1463 1466 1461 1459 1457 1457 1458 1458 1458 1459 1460 1462 1464 1467 1469 1472 1475 1478 1480 1483 1485 1486 1488 1489 1491 1491 1492 1492 1493 1493 1492 1492 1491 1490 1489 1487
1469 1469 1472 1474 1473 1462 1459 1458 1458 1458 1459 1458 1457 1457 1458 1459 1459 1459 1460 1461 1463 1465 1468 1470 1473 1476 1478 1480 1482 1483 1485 1487 1487 1488 1488 1488 1488 1488 1488 1487 1486 1485 1484 1482
1464 1462 1465 1466 1462 1460 1458 1457 1455 1456 1457 1458 1457 1458 1459 1459 1459 1460 1460 1461 1463 1465 1467 1470 1472 1474 1476 1478 1479 1481 1483 1484 1484 1484 1484 1484 1484 1484 1483 1483 1481 1480 1478 1477
1458 1460 1462 1463 1460 1459 1457 1456 1456 1456 1457 1457 1458 1459 1459 1459 1460 1460 1461 1462 1464 1466 1467 1469 1471 1472 1474 1476 1477 1479 1480 1480 1480 1481 1480 1480 1480 1479 1478 1477 1476 1475 1473 1472
1451 1453 1456 1457 1453 1454 1455 1455 1456 1457 1458 1458 1458 1459 1460 1460 1460 1461 1461 1463 1464 1466 1468 1470 1471 1472 1473 1474 1475 1476 1477 1477 1477 1476 1476 1476 1475 1474 1473 1472 1470 1469 1468 1466